When you browse on this site, cookies collect data to enhance your experience and personalize the content and advertising you see.
Visit our Privacy Policy to learn more. By continuing to use the site, you agree to this use of cookies and data.
  • En España
  • Lista de países
  • Para 7 días
  • Temperatura del agua
  • El tiempo en el mapa
  • Informadores
  • user-avatar
    Iniciar sesión

    Tiempo cada hora Yerevan

    Hoy, 6 Abril, Lunes

    Tiempo Temperatura Precipitaciones Viento Presión Humedad
    00:00 +15°C° 0 mm 1 mps 692 mmHg 48%
    01:00 +15°C° 0 mm 1 mps 691 mmHg 50%
    02:00 +14°C° 0 mm 1 mps 691 mmHg 53%
    03:00 +14°C° 0 mm 1 mps 690 mmHg 57%
    04:00 +14°C° 0 mm 1 mps 690 mmHg 57%
    05:00 +14°C° 0 mm 1 mps 690 mmHg 58%
    06:00 +12°C° 0 mm 0 mps 689 mmHg 59%
    07:00 +15°C° 0 mm 1 mps 690 mmHg 54%
    08:00 +16°C° 0 mm 1 mps 690 mmHg 50%
    09:00 +16°C° 0 mm 1 mps 690 mmHg 48%
    10:00 +16°C° 0.2 mm 2 mps 690 mmHg 51%
    11:00 +16°C° 0.2 mm 3 mps 690 mmHg 53%
    12:00 +16°C° 0.2 mm 3 mps 690 mmHg 56%
    13:00 +16°C° 0.9 mm 3 mps 690 mmHg 61%
    14:00 +15°C° 0.9 mm 2 mps 690 mmHg 66%
    15:00 +14°C° 0.9 mm 1 mps 689 mmHg 70%
    16:00 +14°C° 0.2 mm 1 mps 689 mmHg 70%
    17:00 +14°C° 0.2 mm 1 mps 689 mmHg 70%
    18:00 +14°C° 0.2 mm 1 mps 689 mmHg 69%
    19:00 +14°C° 0 mm 1 mps 689 mmHg 71%
    20:00 +13°C° 0 mm 1 mps 689 mmHg 73%
    21:00 +13°C° 0 mm 2 mps 689 mmHg 75%
    22:00 +13°C° 0 mm 1 mps 690 mmHg 77%
    23:00 +13°C° 0 mm 1 mps 690 mmHg 79%

    Mañana, 7 Abril, Martes

    Tiempo Temperatura Precipitaciones Viento Presión Humedad
    00:00 +12°C° 0 mm 1 mps 690 mmHg 80%
    01:00 +12°C° 0.1 mm 1 mps 690 mmHg 79%
    02:00 +12°C° 0.1 mm 1 mps 690 mmHg 77%
    03:00 +12°C° 0.1 mm 2 mps 690 mmHg 75%
    04:00 +12°C° 0.1 mm 2 mps 690 mmHg 74%
    05:00 +11°C° 0.1 mm 3 mps 690 mmHg 73%
    06:00 +10°C° 0.1 mm 3 mps 690 mmHg 72%
    07:00 +10°C° 0.6 mm 3 mps 690 mmHg 71%
    08:00 +10°C° 0.6 mm 3 mps 690 mmHg 71%
    09:00 +10°C° 0.6 mm 3 mps 690 mmHg 70%
    10:00 +11°C° 0.1 mm 3 mps 691 mmHg 66%
    11:00 +12°C° 0.1 mm 3 mps 691 mmHg 61%
    12:00 +12°C° 0.1 mm 3 mps 691 mmHg 56%
    13:00 +13°C° 0 mm 3 mps 691 mmHg 52%
    14:00 +15°C° 0 mm 2 mps 691 mmHg 48%
    15:00 +15°C° 0 mm 2 mps 691 mmHg 44%
    16:00 +13°C° 0 mm 3 mps 691 mmHg 49%
    17:00 +12°C° 0 mm 4 mps 691 mmHg 55%
    18:00 +9°C° 0 mm 5 mps 691 mmHg 60%
    19:00 +8°C° 0 mm 5 mps 692 mmHg 62%
    20:00 +7°C° 0 mm 4 mps 692 mmHg 64%
    21:00 +8°C° 0 mm 3 mps 693 mmHg 66%
    22:00 +7°C° 0 mm 3 mps 693 mmHg 62%
    23:00 +7°C° 0 mm 3 mps 694 mmHg 59%

    Pasado mañana, 8 Abril, Miércoles

    Tiempo Temperatura Precipitaciones Viento Presión Humedad
    00:00 +5°C° 0 mm 3 mps 694 mmHg 56%
    01:00 +6°C° 0 mm 2 mps 694 mmHg 56%
    02:00 +5°C° 0 mm 2 mps 694 mmHg 56%
    03:00 +6°C° 0 mm 1 mps 694 mmHg 56%
    04:00 +5°C° 0 mm 1 mps 694 mmHg 57%
    05:00 +5°C° 0 mm 1 mps 695 mmHg 57%
    06:00 +5°C° 0 mm 1 mps 695 mmHg 57%
    07:00 +6°C° 0 mm 1 mps 695 mmHg 53%
    08:00 +6°C° 0 mm 2 mps 696 mmHg 49%
    09:00 +8°C° 0 mm 2 mps 696 mmHg 44%
    10:00 +9°C° 0 mm 2 mps 696 mmHg 43%
    11:00 +10°C° 0 mm 2 mps 695 mmHg 41%
    12:00 +12°C° 0 mm 2 mps 695 mmHg 40%
    13:00 +12°C° 0 mm 3 mps 695 mmHg 38%
    14:00 +12°C° 0 mm 3 mps 694 mmHg 36%
    15:00 +13°C° 0 mm 3 mps 694 mmHg 35%
    16:00 +12°C° 0 mm 3 mps 694 mmHg 37%
    17:00 +12°C° 0 mm 3 mps 694 mmHg 38%
    18:00 +11°C° 0 mm 3 mps 694 mmHg 40%
    19:00 +10°C° 0 mm 4 mps 694 mmHg 43%
    20:00 +8°C° 0 mm 4 mps 694 mmHg 47%
    21:00 +7°C° 0 mm 4 mps 694 mmHg 50%
    22:00 +7°C° 0 mm 3 mps 694 mmHg 52%
    23:00 +7°C° 0 mm 3 mps 694 mmHg 53%

    9 Abril, Jueves

    Tiempo Temperatura Precipitaciones Viento Presión Humedad
    00:00 +6°C° 0 mm 2 mps 694 mmHg 55%
    01:00 +6°C° 0 mm 2 mps 693 mmHg 56%
    02:00 +6°C° 0 mm 1 mps 693 mmHg 58%
    03:00 +6°C° 0 mm 1 mps 692 mmHg 60%
    04:00 +6°C° 0 mm 1 mps 692 mmHg 61%
    05:00 +5°C° 0 mm 1 mps 691 mmHg 62%
    06:00 +5°C° 0 mm 1 mps 691 mmHg 63%
    07:00 +6°C° 0 mm 1 mps 690 mmHg 58%
    08:00 +8°C° 0 mm 1 mps 690 mmHg 53%
    09:00 +9°C° 0 mm 1 mps 690 mmHg 47%
    10:00 +10°C° 0 mm 1 mps 689 mmHg 44%
    11:00 +12°C° 0 mm 1 mps 688 mmHg 41%
    12:00 +13°C° 0 mm 1 mps 688 mmHg 38%
    13:00 +14°C° 0 mm 1 mps 688 mmHg 36%
    14:00 +15°C° 0 mm 1 mps 687 mmHg 35%
    15:00 +16°C° 0 mm 1 mps 687 mmHg 33%
    16:00 +16°C° 0 mm 1 mps 687 mmHg 35%
    17:00 +15°C° 0 mm 1 mps 687 mmHg 37%
    18:00 +15°C° 0 mm 1 mps 687 mmHg 39%
    19:00 +14°C° 0 mm 1 mps 687 mmHg 42%
    20:00 +13°C° 0 mm 1 mps 687 mmHg 45%
    21:00 +12°C° 0 mm 2 mps 687 mmHg 49%
    22:00 +12°C° 0 mm 2 mps 687 mmHg 52%
    23:00 +10°C° 0 mm 2 mps 687 mmHg 55%

    10 Abril, Viernes

    Tiempo Temperatura Precipitaciones Viento Presión Humedad
    00:00 +9°C° 0 mm 2 mps 687 mmHg 58%
    01:00 +10°C° 0 mm 1 mps 687 mmHg 59%
    02:00 +10°C° 0 mm 1 mps 687 mmHg 60%
    03:00 +9°C° 0 mm 1 mps 686 mmHg 61%
    04:00 +9°C° 0 mm 1 mps 686 mmHg 62%
    05:00 +9°C° 0 mm 1 mps 686 mmHg 63%
    06:00 +8°C° 0 mm 1 mps 686 mmHg 65%
    07:00 +10°C° 0 mm 1 mps 686 mmHg 60%
    08:00 +11°C° 0 mm 1 mps 686 mmHg 54%
    09:00 +13°C° 0 mm 1 mps 686 mmHg 49%
    10:00 +14°C° 0 mm 2 mps 685 mmHg 47%
    11:00 +15°C° 0 mm 2 mps 685 mmHg 45%
    12:00 +16°C° 0 mm 2 mps 685 mmHg 42%
    13:00 +16°C° 0 mm 2 mps 685 mmHg 42%
    14:00 +17°C° 0 mm 3 mps 685 mmHg 41%
    15:00 +18°C° 0 mm 3 mps 685 mmHg 40%
    16:00 +17°C° 0 mm 2 mps 685 mmHg 42%
    17:00 +17°C° 0 mm 2 mps 685 mmHg 44%
    18:00 +17°C° 0 mm 2 mps 685 mmHg 46%
    19:00 +16°C° 0 mm 2 mps 685 mmHg 50%
    20:00 +15°C° 0 mm 2 mps 685 mmHg 53%
    21:00 +14°C° 0 mm 2 mps 686 mmHg 56%
    22:00 +14°C° 0.1 mm 2 mps 686 mmHg 58%
    23:00 +14°C° 0.1 mm 2 mps 686 mmHg 59%

    11 Abril, Sábado

    Tiempo Temperatura Precipitaciones Viento Presión Humedad
    00:00 +13°C° 0.1 mm 2 mps 686 mmHg 60%
    01:00 +12°C° 1 mm 2 mps 685 mmHg 68%
    02:00 +12°C° 1 mm 2 mps 685 mmHg 75%
    03:00 +10°C° 1 mm 2 mps 684 mmHg 83%
    04:00 +9°C° 1.6 mm 2 mps 685 mmHg 83%
    05:00 +9°C° 1.6 mm 2 mps 685 mmHg 83%
    06:00 +9°C° 1.6 mm 2 mps 685 mmHg 84%
    07:00 +9°C° 1.4 mm 2 mps 685 mmHg 85%
    08:00 +10°C° 1.4 mm 1 mps 684 mmHg 86%
    09:00 +10°C° 1.4 mm 1 mps 684 mmHg 86%
    10:00 +10°C° 1.1 mm 1 mps 684 mmHg 84%
    11:00 +9°C° 1.1 mm 2 mps 684 mmHg 81%
    12:00 +9°C° 1.1 mm 2 mps 684 mmHg 79%
    13:00 +10°C° 0.2 mm 2 mps 684 mmHg 76%
    14:00 +10°C° 0.2 mm 2 mps 684 mmHg 73%
    15:00 +12°C° 0.2 mm 2 mps 684 mmHg 70%
    16:00 +12°C° 0.1 mm 2 mps 685 mmHg 71%
    17:00 +11°C° 0.1 mm 3 mps 685 mmHg 71%
    18:00 +11°C° 0.1 mm 3 mps 685 mmHg 72%
    19:00 +10°C° 0 mm 2 mps 686 mmHg 72%
    20:00 +10°C° 0 mm 2 mps 686 mmHg 72%
    21:00 +9°C° 0 mm 2 mps 687 mmHg 72%
    22:00 +10°C° 0 mm 1 mps 687 mmHg 72%
    23:00 +10°C° 0 mm 1 mps 687 mmHg 71%
    Mostrar más